Weather reports worldwide

Advertisment
Jerez De La Frontera aeropuert, Spain (8451): temperature & dewpoint: 19.03.2019 18:00:00 - 25.03.2019 18:00:00 (CET)Jerez De La Frontera aeropuert, Spain (8451): wind speed: 19.03.2019 18:00:00 - 25.03.2019 18:00:00 (CET)Jerez De La Frontera aeropuert, Spain (8451): wind direction: 19.03.2019 18:00:00 - 25.03.2019 18:00:00 (CET)Jerez De La Frontera aeropuert, Spain (8451): reduced air pressure: 19.03.2019 18:00:00 - 25.03.2019 18:00:00 (CET)Jerez De La Frontera aeropuert, Spain (8451): visibility: 19.03.2019 18:00:00 - 25.03.2019 18:00:00 (CET)
Date & Time tt [°C] td [°C] ff [km/h] ff [kn] dd ppp [hPa] vv [km]
25.03.2019 18:00:00 - - - - - - -
25.03.2019 17:00:00 24,1 9,2 26 14 ESE 1012,5 10
25.03.2019 16:00:00 24,8 9,1 18 10 ESE 1013,0 10
25.03.2019 15:00:00 24,8 9,4 16 9 ESE 1013,8 10
25.03.2019 14:00:00 24,2 9,6 16 9 E 1015,0 10
25.03.2019 13:00:00 23,2 9,5 16 9 E 1016,0 10
25.03.2019 12:00:00 22,4 9,2 15 8 E 1017,0 10
25.03.2019 11:00:00 21,1 8,1 11 6 E 1017,6 10
25.03.2019 10:00:00 19,2 8,6 8 4 NNE 1017,8 10
25.03.2019 09:00:00 16,2 8,2 0 0 N 1017,7 10
25.03.2019 08:00:00 9,4 6,4 4 2 - 1017,6 10
25.03.2019 07:00:00 9,1 5,8 0 0 N 1017,5 10
25.03.2019 06:00:00 8,6 5,7 11 6 N 1017,4 10
25.03.2019 05:00:00 8,8 4,5 4 2 E 1017,6 10
25.03.2019 04:00:00 9,7 5,1 5 3 NE 1017,8 10
25.03.2019 03:00:00 9,8 5,4 2 1 - 1018,0 10
25.03.2019 02:00:00 9,6 5,2 5 3 N 1018,8 10
25.03.2019 01:00:00 9,4 5,4 8 4 NE 1019,0 10
25.03.2019 00:00:00 12,3 5,2 9 5 NE 1019,1 10
24.03.2019 23:00:00 13,3 5,5 9 5 E 1019,4 10
24.03.2019 22:00:00 14,4 6,4 9 5 E 1019,4 10
24.03.2019 21:00:00 16,0 7,5 11 6 ESE 1019,3 10
24.03.2019 20:00:00 18,0 7,4 18 10 SE 1018,5 10
24.03.2019 19:00:00 20,0 8,3 28 15 ESE 1017,8 10
24.03.2019 18:00:00 21,4 8,6 26 14 ESE 1017,4 10
24.03.2019 17:00:00 22,8 9,1 22 12 E 1017,1 10
24.03.2019 16:00:00 22,8 9,3 28 15 SE 1017,5 10
24.03.2019 15:00:00 22,9 9,1 22 12 ESE 1017,7 10
24.03.2019 14:00:00 22,6 10,4 26 14 E 1018,1 10
24.03.2019 13:00:00 22,4 11,1 18 10 SE 1018,5 30
24.03.2019 12:00:00 21,8 10,8 21 11 E 1018,8 10
24.03.2019 11:00:00 20,8 10,4 24 13 E 1018,7 10
24.03.2019 10:00:00 19,2 9,5 24 13 E 1018,5 10
24.03.2019 09:00:00 16,6 9,5 15 8 ENE 1018,2 10
24.03.2019 08:00:00 13,3 8,4 9 5 ENE 1017,9 10
24.03.2019 07:00:00 12,6 7,9 8 4 E 1017,9 10
24.03.2019 06:00:00 13,5 7,6 16 9 ENE 1017,7 10
24.03.2019 05:00:00 12,8 7,5 15 8 NE 1017,5 10
24.03.2019 04:00:00 12,3 7,2 13 7 NE 1017,5 10
24.03.2019 03:00:00 13,8 7,8 15 8 E 1018,0 10
24.03.2019 02:00:00 12,7 7,3 9 5 ESE 1018,0 10
24.03.2019 01:00:00 13,8 7,3 11 6 E 1018,5 10
24.03.2019 00:00:00 14,1 6,7 11 6 E 1018,8 10
23.03.2019 23:00:00 14,9 6,7 13 7 E 1019,2 10
23.03.2019 22:00:00 15,4 5,9 21 11 E 1019,5 10
23.03.2019 21:00:00 15,7 6,1 16 9 E 1019,2 10
23.03.2019 20:00:00 17,1 5,6 22 12 ESE 1018,6 10
23.03.2019 19:00:00 18,5 5,7 24 13 ESE 1018,1 10
23.03.2019 18:00:00 19,9 5,9 29 16 ESE 1017,9 10
23.03.2019 17:00:00 21,0 6,1 28 15 ESE 1017,8 10
23.03.2019 16:00:00 21,8 6,8 24 13 ESE 1018,2 10
23.03.2019 15:00:00 21,9 8,4 28 15 ESE 1018,5 10
23.03.2019 14:00:00 21,8 8,1 28 15 ESE 1019,2 10
23.03.2019 13:00:00 21,8 7,4 29 16 E 1019,7 10
23.03.2019 12:00:00 20,7 7,5 28 15 ESE 1020,4 10
23.03.2019 11:00:00 19,9 7,9 26 14 E 1020,6 10
23.03.2019 10:00:00 18,5 7,8 22 12 ENE 1021,0 10
23.03.2019 09:00:00 14,9 7,0 13 7 ENE 1020,8 10
23.03.2019 08:00:00 7,9 4,9 5 3 N 1021,1 10
23.03.2019 07:00:00 7,2 2,6 8 4 NNE 1020,9 10
23.03.2019 06:00:00 8,5 3,9 2 1 - 1020,9 10
23.03.2019 05:00:00 9,5 4,4 15 8 N 1021,1 10
23.03.2019 04:00:00 8,9 3,7 15 8 N 1021,5 10
23.03.2019 03:00:00 11,5 3,5 13 7 NE 1021,9 10
23.03.2019 02:00:00 14,0 4,3 16 9 E 1022,0 10
23.03.2019 01:00:00 13,7 3,7 16 9 E 1022,5 10
23.03.2019 00:00:00 13,5 4,6 15 8 ESE 1023,0 10
22.03.2019 23:00:00 13,6 4,7 9 5 E 1023,1 10
22.03.2019 22:00:00 13,3 5,2 8 4 E 1022,9 10
22.03.2019 21:00:00 15,4 5,3 16 9 E 1022,5 10
22.03.2019 20:00:00 16,6 3,6 22 12 ESE 1021,7 10
22.03.2019 19:00:00 19,2 5,6 22 12 ESE 1021,2 10
22.03.2019 18:00:00 20,7 5,6 21 11 ESE 1020,9 10
22.03.2019 17:00:00 21,0 6,3 21 11 ESE 1021,1 10
22.03.2019 16:00:00 21,9 6,3 15 8 E 1021,3 10
22.03.2019 15:00:00 21,4 6,8 15 8 E 1022,0 10
22.03.2019 14:00:00 20,6 6,6 13 7 E 1022,6 10
22.03.2019 13:00:00 20,5 5,6 11 6 E 1023,1 10
22.03.2019 12:00:00 19,4 5,8 11 6 E 1023,8 10
22.03.2019 11:00:00 17,6 4,8 9 5 NE 1024,1 10
22.03.2019 10:00:00 14,3 6,8 4 2 - 1024,2 10
22.03.2019 09:00:00 9,7 5,4 8 4 N 1024,2 10
22.03.2019 08:00:00 4,7 1,4 4 2 - 1024,2 10
22.03.2019 07:00:00 4,6 1,9 4 2 - 1023,9 10
22.03.2019 06:00:00 5,1 2,1 8 4 NE 1024,0 10
22.03.2019 05:00:00 6,7 2,2 5 3 NE 1023,8 10
22.03.2019 04:00:00 7,4 3,1 15 8 N 1023,8 10
22.03.2019 03:00:00 7,4 3,7 11 6 N 1024,1 10
22.03.2019 02:00:00 9,8 4,1 5 3 E 1024,1 10
22.03.2019 01:00:00 10,1 3,8 5 3 ENE 1024,2 10
22.03.2019 00:00:00 11,0 4,2 9 5 E 1024,5 10
21.03.2019 23:00:00 11,3 4,5 9 5 E 1024,6 10
21.03.2019 22:00:00 11,1 4,3 5 3 E 1024,3 10
21.03.2019 21:00:00 11,9 4,1 5 3 SSE 1023,8 10
21.03.2019 20:00:00 14,2 5,0 15 8 SE 1023,5 10
21.03.2019 19:00:00 16,7 3,4 24 13 SE 1023,1 10
21.03.2019 18:00:00 18,2 3,6 22 12 SE 1022,7 10
21.03.2019 17:00:00 19,8 3,3 18 10 ESE 1022,6 10
21.03.2019 16:00:00 19,2 1,9 9 5 ESE 1022,9 10
21.03.2019 15:00:00 20,2 2,1 16 9 SE 1023,0 10
21.03.2019 14:00:00 19,9 1,8 13 7 - 1023,8 10
21.03.2019 13:00:00 18,9 3,0 13 7 - 1024,4 10
21.03.2019 12:00:00 18,0 3,9 11 6 ENE 1024,8 10
21.03.2019 11:00:00 16,7 4,7 13 7 E 1025,0 10
21.03.2019 10:00:00 14,6 6,7 4 2 - 1025,2 10
21.03.2019 09:00:00 9,8 5,4 5 3 N 1025,4 10
21.03.2019 08:00:00 5,4 2,7 2 1 - 1024,9 10
21.03.2019 07:00:00 5,0 2,5 8 4 NNE 1024,5 10
21.03.2019 06:00:00 5,7 3,0 5 3 N 1023,9 10
21.03.2019 05:00:00 7,5 3,2 9 5 NNE 1023,9 10
21.03.2019 04:00:00 7,2 4,5 13 7 N 1023,9 10
21.03.2019 03:00:00 9,5 4,7 11 6 ENE 1024,4 10
21.03.2019 02:00:00 10,8 5,5 13 7 ESE 1024,4 10
21.03.2019 01:00:00 9,9 4,4 9 5 E 1024,5 10
21.03.2019 00:00:00 10,9 4,6 9 5 ESE 1024,6 10
20.03.2019 23:00:00 10,4 4,1 8 4 SE 1024,9 10
20.03.2019 22:00:00 10,9 4,1 4 2 - 1024,8 10
20.03.2019 21:00:00 12,3 4,5 2 1 - 1024,4 10
20.03.2019 20:00:00 14,1 5,4 11 6 SSE 1023,9 10
20.03.2019 19:00:00 16,3 5,8 21 11 SE 1023,4 10
20.03.2019 18:00:00 17,6 5,5 24 13 SE 1022,6 10
20.03.2019 17:00:00 17,3 7,3 28 15 SSE 1022,4 10
20.03.2019 16:00:00 18,5 6,5 16 9 ESE 1022,6 10
20.03.2019 15:00:00 18,9 5,2 9 5 - 1022,9 10
20.03.2019 14:00:00 19,1 5,2 9 5 - 1023,6 10
20.03.2019 13:00:00 18,8 6,3 16 9 ESE 1024,2 10
20.03.2019 12:00:00 17,6 7,2 18 10 S 1024,8 10
20.03.2019 11:00:00 17,9 7,4 11 6 - 1025,1 10
20.03.2019 10:00:00 16,1 7,9 2 1 - 1024,8 10
20.03.2019 09:00:00 10,7 6,1 0 0 N 1024,6 10
20.03.2019 08:00:00 6,3 3,5 4 2 - 1024,2 10
20.03.2019 07:00:00 6,7 3,1 15 8 N 1023,6 10
20.03.2019 06:00:00 6,2 3,8 8 4 N 1023,1 10
20.03.2019 05:00:00 6,5 4,4 5 3 N 1023,0 10
20.03.2019 04:00:00 6,2 2,3 4 2 - 1022,9 10
20.03.2019 03:00:00 7,4 2,1 4 2 - 1023,3 10
20.03.2019 02:00:00 7,2 0,6 5 3 ENE 1023,5 10
20.03.2019 01:00:00 9,4 0,6 4 2 ENE 1023,7 10
20.03.2019 00:00:00 10,1 1,3 5 3 E 1023,5 10
19.03.2019 23:00:00 12,7 0,1 8 4 ENE 1023,2 10
19.03.2019 22:00:00 13,2 0,6 9 5 ENE 1022,5 10
19.03.2019 21:00:00 15,1 1,6 13 7 NE 1021,9 10
19.03.2019 20:00:00 16,9 1,7 11 6 NE 1021,4 10
19.03.2019 19:00:00 20,3 1,8 21 11 NE 1020,5 10
19.03.2019 18:00:00 21,7 1,5 24 13 NNE 1020,1 10

tt = temperature
td = dewpoint
ff = wind speed
dd = wind direction
ppp = reduced air pressure
vv = visibility

Next stations